Time,TemperatureF,DewpointF,PressureIn,WindDirection,WindDirectionDegrees,WindSpeedMPH,WindSpeedGustMPH,Humidity,HourlyPrecipIn,Conditions,Clouds,dailyrainin,SoftwareType,DateUTC
2013-04-30 00:03:00,53.1,25.4,30.04,West,270,0.0,-999.0,34,-99.99,,,0.00,Acu-Link.com,2013-04-30 04:03:00,
2013-04-30 00:18:00,52.3,25.5,30.05,WNW,292,0.0,-999.0,35,-99.99,,,0.00,Acu-Link.com,2013-04-30 04:18:00,
2013-04-30 00:33:00,51.8,25.7,30.05,WSW,247,0.0,-999.0,36,-99.99,,,0.00,Acu-Link.com,2013-04-30 04:33:00,
2013-04-30 00:49:00,51.3,26.5,30.05,SW,225,0.0,-999.0,38,-99.99,,,0.00,Acu-Link.com,2013-04-30 04:49:00,
2013-04-30 01:04:00,51.1,27.0,30.04,WNW,292,0.0,-999.0,39,-99.99,,,0.00,Acu-Link.com,2013-04-30 05:04:00,
2013-04-30 01:19:00,50.7,28.5,30.05,WNW,292,0.0,-999.0,42,-99.99,,,0.00,Acu-Link.com,2013-04-30 05:19:00,
2013-04-30 01:34:00,50.2,28.6,30.04,WNW,292,0.0,-999.0,43,-99.99,,,0.00,Acu-Link.com,2013-04-30 05:34:00,
2013-04-30 01:50:00,50.2,27.4,30.04,WSW,247,0.0,-999.0,41,-99.99,,,0.00,Acu-Link.com,2013-04-30 05:50:00,
2013-04-30 02:05:00,50.0,28.4,30.04,West,270,0.0,-999.0,43,-99.99,,,0.00,Acu-Link.com,2013-04-30 06:05:00,
2013-04-30 02:20:00,50.0,29.0,30.04,West,270,0.0,-999.0,44,-99.99,,,0.00,Acu-Link.com,2013-04-30 06:20:00,
2013-04-30 02:35:00,49.5,29.0,30.04,West,270,0.0,-999.0,45,-99.99,,,0.00,Acu-Link.com,2013-04-30 06:35:00,
2013-04-30 02:50:00,49.1,29.8,30.04,West,270,0.0,-999.0,47,-99.99,,,0.00,Acu-Link.com,2013-04-30 06:50:00,
2013-04-30 03:05:00,48.9,30.1,30.04,WNW,292,0.0,-999.0,48,-99.99,,,0.00,Acu-Link.com,2013-04-30 07:05:00,
2013-04-30 03:21:00,48.7,29.9,30.04,WNW,292,0.0,-999.0,48,-99.99,,,0.00,Acu-Link.com,2013-04-30 07:21:00,
2013-04-30 03:36:00,49.1,29.8,30.04,WNW,292,0.0,-999.0,47,-99.99,,,0.00,Acu-Link.com,2013-04-30 07:36:00,
2013-04-30 03:51:00,48.9,30.6,30.05,WNW,292,0.0,-999.0,49,-99.99,,,0.00,Acu-Link.com,2013-04-30 07:51:00,
2013-04-30 04:06:00,49.1,30.8,30.05,WNW,292,0.0,-999.0,49,-99.99,,,0.00,Acu-Link.com,2013-04-30 08:06:00,
2013-04-30 04:21:00,49.1,30.8,30.05,West,270,0.0,-999.0,49,-99.99,,,0.00,Acu-Link.com,2013-04-30 08:21:00,
2013-04-30 04:37:00,49.1,30.8,30.05,West,270,0.0,-999.0,49,-99.99,,,0.00,Acu-Link.com,2013-04-30 08:37:00,
2013-04-30 04:52:00,48.9,31.6,30.05,WSW,247,0.0,-999.0,51,-99.99,,,0.00,Acu-Link.com,2013-04-30 08:52:00,
2013-04-30 05:07:00,48.7,33.3,30.06,West,270,0.0,-999.0,55,-99.99,,,0.00,Acu-Link.com,2013-04-30 09:07:00,
2013-04-30 05:22:00,48.4,33.0,30.06,West,270,0.0,-999.0,55,-99.99,,,0.00,Acu-Link.com,2013-04-30 09:22:00,
2013-04-30 05:37:00,48.0,34.0,30.07,West,270,0.0,-999.0,58,-99.99,,,0.00,Acu-Link.com,2013-04-30 09:37:00,
2013-04-30 05:52:00,47.5,34.3,30.07,West,270,0.0,-999.0,60,-99.99,,,0.00,Acu-Link.com,2013-04-30 09:52:00,
2013-04-30 06:08:00,47.1,34.4,30.07,West,270,0.0,-999.0,61,-99.99,,,0.00,Acu-Link.com,2013-04-30 10:08:00,
2013-04-30 06:23:00,46.9,35.0,30.08,West,270,0.0,-999.0,63,-99.99,,,0.00,Acu-Link.com,2013-04-30 10:23:00,
2013-04-30 06:38:00,46.9,33.4,30.08,West,270,0.0,-999.0,59,-99.99,,,0.00,Acu-Link.com,2013-04-30 10:38:00,
2013-04-30 06:53:00,48.9,34.4,30.09,West,270,0.0,-999.0,57,-99.99,,,0.00,Acu-Link.com,2013-04-30 10:53:00,
2013-04-30 07:09:00,52.5,35.9,30.09,WNW,292,0.0,-999.0,53,-99.99,,,0.00,Acu-Link.com,2013-04-30 11:09:00,
2013-04-30 07:24:00,55.9,36.5,30.10,ESE,112,2.2,-999.0,48,-99.99,,,0.00,Acu-Link.com,2013-04-30 11:24:00,
2013-04-30 07:39:00,59.7,37.8,30.10,East,90,2.2,-999.0,44,-99.99,,,0.00,Acu-Link.com,2013-04-30 11:39:00,
2013-04-30 07:54:00,62.2,37.0,30.10,ESE,112,2.2,-999.0,39,-99.99,,,0.00,Acu-Link.com,2013-04-30 11:54:00,
2013-04-30 08:09:00,64.8,37.2,30.10,NNE,22,1.1,-999.0,36,-99.99,,,0.00,Acu-Link.com,2013-04-30 12:09:00,
2013-04-30 08:25:00,64.6,35.6,30.11,East,90,1.1,-999.0,34,-99.99,,,0.00,Acu-Link.com,2013-04-30 12:25:00,
2013-04-30 08:40:00,59.5,33.2,30.11,SE,135,3.8,-999.0,37,-99.99,,,0.00,Acu-Link.com,2013-04-30 12:40:00,
2013-04-30 08:55:00,59.0,30.7,30.11,ENE,67,2.7,-999.0,34,-99.99,,,0.00,Acu-Link.com,2013-04-30 12:55:00,
2013-04-30 09:10:00,59.5,27.3,30.11,East,90,2.7,-999.0,29,-99.99,,,0.00,Acu-Link.com,2013-04-30 13:10:00,
2013-04-30 09:25:00,61.5,24.4,30.11,SSE,157,4.3,-999.0,24,-99.99,,,0.00,Acu-Link.com,2013-04-30 13:25:00,
2013-04-30 09:41:00,62.1,29.4,30.11,ESE,112,4.7,-999.0,29,-99.99,,,0.00,Acu-Link.com,2013-04-30 13:41:00,
2013-04-30 09:56:00,61.9,27.5,30.11,SE,135,4.7,-999.0,27,-99.99,,,0.00,Acu-Link.com,2013-04-30 13:56:00,
2013-04-30 10:11:00,62.6,26.3,30.11,ESE,112,3.1,-999.0,25,-99.99,,,0.00,Acu-Link.com,2013-04-30 14:11:00,
2013-04-30 10:26:00,64.0,23.3,30.11,SSE,157,3.1,-999.0,21,-99.99,,,0.00,Acu-Link.com,2013-04-30 14:26:00,
2013-04-30 10:41:00,62.4,20.8,30.11,ESE,112,3.1,-999.0,20,-99.99,,,0.00,Acu-Link.com,2013-04-30 14:41:00,
2013-04-30 10:57:00,64.0,25.5,30.11,SSE,157,2.2,-999.0,23,-99.99,,,0.00,Acu-Link.com,2013-04-30 14:57:00,
2013-04-30 11:12:00,63.5,22.9,30.11,ESE,112,4.3,-999.0,21,-99.99,,,0.00,Acu-Link.com,2013-04-30 15:12:00,
2013-04-30 11:27:00,64.0,23.3,30.10,SSE,157,5.8,-999.0,21,-99.99,,,0.00,Acu-Link.com,2013-04-30 15:27:00,
2013-04-30 11:42:00,64.8,25.0,30.10,ESE,112,4.7,-999.0,22,-99.99,,,0.00,Acu-Link.com,2013-04-30 15:42:00,
2013-04-30 11:57:00,65.3,26.6,30.10,ENE,67,3.8,-999.0,23,-99.99,,,0.00,Acu-Link.com,2013-04-30 15:57:00,
2013-04-30 12:13:00,66.9,30.0,30.09,ENE,67,5.1,-999.0,25,-99.99,,,0.00,Acu-Link.com,2013-04-30 16:13:00,
2013-04-30 12:28:00,68.0,28.8,30.09,South,180,3.1,-999.0,23,-99.99,,,0.00,Acu-Link.com,2013-04-30 16:28:00,
2013-04-30 12:43:00,66.2,28.3,30.09,East,90,5.8,-999.0,24,-99.99,,,0.00,Acu-Link.com,2013-04-30 16:43:00,
2013-04-30 12:58:00,67.1,29.1,30.09,SSE,157,4.7,-999.0,24,-99.99,,,0.00,Acu-Link.com,2013-04-30 16:58:00,
2013-04-30 13:14:00,66.7,30.8,30.09,ESE,112,5.1,-999.0,26,-99.99,,,0.00,Acu-Link.com,2013-04-30 17:14:00,
2013-04-30 13:29:00,67.3,29.3,30.08,SE,135,4.7,-999.0,24,-99.99,,,0.00,Acu-Link.com,2013-04-30 17:29:00,
2013-04-30 13:44:00,68.0,28.8,30.08,ESE,112,4.7,-999.0,23,-99.99,,,0.00,Acu-Link.com,2013-04-30 17:44:00,
2013-04-30 13:59:00,68.5,29.3,30.08,ESE,112,5.8,-999.0,23,-99.99,,,0.00,Acu-Link.com,2013-04-30 17:59:00,
2013-04-30 14:14:00,68.7,30.5,30.08,SSE,157,3.8,-999.0,24,-99.99,,,0.00,Acu-Link.com,2013-04-30 18:14:00,
2013-04-30 14:30:00,68.7,29.4,30.08,SSE,157,3.8,-999.0,23,-99.99,,,0.00,Acu-Link.com,2013-04-30 18:30:00,
2013-04-30 14:45:00,68.7,30.5,30.08,ESE,112,4.3,-999.0,24,-99.99,,,0.00,Acu-Link.com,2013-04-30 18:45:00,
2013-04-30 15:00:00,69.1,27.5,30.07,SSW,202,3.1,-999.0,21,-99.99,,,0.00,Acu-Link.com,2013-04-30 19:00:00,
2013-04-30 15:15:00,69.4,28.9,30.07,SE,135,7.4,-999.0,22,-99.99,,,0.00,Acu-Link.com,2013-04-30 19:15:00,
2013-04-30 15:30:00,68.7,27.2,30.06,NNW,337,1.6,-999.0,21,-99.99,,,0.00,Acu-Link.com,2013-04-30 19:30:00,
2013-04-30 15:46:00,68.4,28.0,30.06,East,90,3.1,-999.0,22,-99.99,,,0.00,Acu-Link.com,2013-04-30 19:46:00,
2013-04-30 16:01:00,71.1,29.1,30.06,West,270,2.7,-999.0,21,-99.99,,,0.00,Acu-Link.com,2013-04-30 20:01:00,
2013-04-30 16:16:00,68.9,27.4,30.06,WNW,292,1.1,-999.0,21,-99.99,,,0.00,Acu-Link.com,2013-04-30 20:16:00,
2013-04-30 16:31:00,68.5,28.2,30.06,SSE,157,6.3,-999.0,22,-99.99,,,0.00,Acu-Link.com,2013-04-30 20:31:00,
2013-04-30 16:46:00,69.4,28.9,30.06,SE,135,5.8,-999.0,22,-99.99,,,0.00,Acu-Link.com,2013-04-30 20:46:00,
2013-04-30 17:02:00,68.9,28.5,30.06,East,90,5.1,-999.0,22,-99.99,,,0.00,Acu-Link.com,2013-04-30 21:02:00,
2013-04-30 17:17:00,68.0,28.8,30.07,SSE,157,6.7,-999.0,23,-99.99,,,0.00,Acu-Link.com,2013-04-30 21:17:00,
2013-04-30 17:32:00,67.5,29.4,30.07,East,90,4.7,-999.0,24,-99.99,,,0.00,Acu-Link.com,2013-04-30 21:32:00,
2013-04-30 17:47:00,66.6,27.6,30.07,ESE,112,8.9,-999.0,23,-99.99,,,0.00,Acu-Link.com,2013-04-30 21:47:00,
2013-04-30 18:03:00,66.4,27.5,30.08,SSE,157,4.7,-999.0,23,-99.99,,,0.00,Acu-Link.com,2013-04-30 22:03:00,
2013-04-30 18:18:00,65.7,26.9,30.08,ESE,112,4.3,-999.0,23,-99.99,,,0.00,Acu-Link.com,2013-04-30 22:18:00,
2013-04-30 18:33:00,64.6,26.0,30.08,SE,135,3.8,-999.0,23,-99.99,,,0.00,Acu-Link.com,2013-04-30 22:33:00,
2013-04-30 18:48:00,63.9,25.3,30.09,ESE,112,11.0,-999.0,23,-99.99,,,0.00,Acu-Link.com,2013-04-30 22:48:00,
2013-04-30 19:03:00,63.0,24.6,30.09,SSE,157,6.3,-999.0,23,-99.99,,,0.00,Acu-Link.com,2013-04-30 23:03:00,
2013-04-30 19:19:00,62.1,25.8,30.09,ESE,112,3.1,-999.0,25,-99.99,,,0.00,Acu-Link.com,2013-04-30 23:19:00,
2013-04-30 19:34:00,61.3,25.2,30.10,ESE,112,2.7,-999.0,25,-99.99,,,0.00,Acu-Link.com,2013-04-30 23:34:00,
2013-04-30 19:49:00,60.4,25.4,30.11,ESE,112,7.4,-999.0,26,-99.99,,,0.00,Acu-Link.com,2013-04-30 23:49:00,
2013-04-30 20:04:00,59.7,24.8,30.11,SSE,157,2.7,-999.0,26,-99.99,,,0.00,Acu-Link.com,2013-05-01 00:04:00,
2013-04-30 20:19:00,59.0,25.1,30.12,SE,135,3.1,-999.0,27,-99.99,,,0.00,Acu-Link.com,2013-05-01 00:19:00,
2013-04-30 20:35:00,57.4,27.0,30.12,West,270,0.0,-999.0,31,-99.99,,,0.00,Acu-Link.com,2013-05-01 00:35:00,
2013-04-30 20:50:00,57.0,25.1,30.12,ESE,112,4.7,-999.0,29,-99.99,,,0.00,Acu-Link.com,2013-05-01 00:50:00,
2013-04-30 21:05:00,56.5,25.4,30.12,SE,135,2.2,-999.0,30,-99.99,,,0.00,Acu-Link.com,2013-05-01 01:05:00,
2013-04-30 21:20:00,54.7,26.2,30.13,South,180,0.0,-999.0,33,-99.99,,,0.00,Acu-Link.com,2013-05-01 01:20:00,
2013-04-30 21:35:00,53.2,25.6,30.13,West,270,0.0,-999.0,34,-99.99,,,0.00,Acu-Link.com,2013-05-01 01:35:00,
2013-04-30 21:51:00,52.5,26.3,30.13,WNW,292,0.0,-999.0,36,-99.99,,,0.00,Acu-Link.com,2013-05-01 01:51:00,
2013-04-30 22:06:00,52.2,26.0,30.13,WNW,292,0.0,-999.0,36,-99.99,,,0.00,Acu-Link.com,2013-05-01 02:06:00,
2013-04-30 22:21:00,51.8,25.7,30.14,WNW,292,1.6,-999.0,36,-99.99,,,0.00,Acu-Link.com,2013-05-01 02:21:00,
2013-04-30 22:36:00,51.4,26.0,30.14,West,270,1.1,-999.0,37,-99.99,,,0.00,Acu-Link.com,2013-05-01 02:36:00,
2013-04-30 22:52:00,50.9,26.2,30.14,West,270,1.6,-999.0,38,-99.99,,,0.00,Acu-Link.com,2013-05-01 02:52:00,
2013-04-30 23:07:00,50.4,27.0,30.14,West,270,1.6,-999.0,40,-99.99,,,0.00,Acu-Link.com,2013-05-01 03:07:00,
2013-04-30 23:22:00,50.0,26.6,30.15,WNW,292,0.0,-999.0,40,-99.99,,,0.00,Acu-Link.com,2013-05-01 03:22:00,
2013-04-30 23:37:00,49.1,27.0,30.15,NW,315,0.0,-999.0,42,-99.99,,,0.00,Acu-Link.com,2013-05-01 03:37:00,
2013-04-30 23:52:00,48.2,28.4,30.15,SSE,157,0.0,-999.0,46,-99.99,,,0.00,Acu-Link.com,2013-05-01 03:52:00,